Back to catalog

YUNYAO-1 45

AliveWeatherSSO
NORAD 63346·PAYLOAD·🇨🇳 China

Launched Mar 21, 2025 from Jiuquan Satellite Launch Center

Loading…

Next Passes (next 24 hours)

TLE

FreshSource: Space-Track

Epoch: Sep 14, 2026, 23:31 UTC

1 63346U 25059C   26257.98012635  .00003229  00000-0  19426-3 0  9990
2 63346  97.6154  79.0833 0015025 204.3693 155.6829 15.11475235 81869

Track YUNYAO-1 45 in real time with AllMySat

Download on the App Store